K2MIT Weather Reports


time (UTC)temp
C
wind
direction
speed
KPH
gust
KPH
rain 1hr
cm
rain 24hr
cm
rain mn
cm
humidity
%
barometer
mb
20260504171529 20 313 6.4 24.1 0.00 0.00 0.00 32 1010.9
20260504081535 10 242 3.2 11.3 0.00 0.00 0.00 46 1012.8
20260504044531 9 0 0.0 3.2 0.00 0.00 0.00 47 1012.1
20260504043032 10 199 0.0 3.2 0.00 0.00 0.00 47 1011.9
20260504041541 10 237 1.6 6.4 0.00 0.00 0.00 46 1011.8
20260504040040 10 0 0.0 3.2 0.00 0.00 0.00 45 1011.9
20260504034538 10 0 0.0 4.8 0.00 0.00 0.00 45 1011.8
20260504033030 10 223 1.6 4.8 0.00 0.00 0.00 46 1012.0
20260504031533 10 229 0.0 3.2 0.00 0.00 0.00 45 1011.9
20260504030035 9 0 0.0 0.0 0.00 0.00 0.00 51 1011.9
20260504024532 9 0 0.0 0.0 0.00 0.00 0.00 46 1011.9
20260504023030 9 0 0.0 3.2 0.00 0.00 0.00 48 1012.0
20260504021532 10 0 0.0 0.0 0.00 0.00 0.00 45 1011.9
20260504020037 10 0 0.0 0.0 0.00 0.00 0.00 44 1011.9
20260504014532 10 0 0.0 0.0 0.00 0.00 0.00 43 1011.9
20260504013040 11 0 0.0 0.0 0.00 0.00 0.00 40 1012.3
20260504011532 11 271 1.6 4.8 0.00 0.00 0.00 39 1011.6
20260504010032 11 0 0.0 1.6 0.00 0.00 0.00 39 1011.4
20260504004532 11 226 0.0 4.8 0.00 0.00 0.00 36 1011.3
20260504003029 12 271 0.0 3.2 0.00 0.00 0.00 34 1011.1
20260504001536 12 296 1.6 6.4 0.00 0.00 0.00 32 1010.7
20260504000028 13 294 1.6 9.7 0.00 0.00 0.00 32 1010.6
20260503234532 13 300 3.2 14.5 0.00 0.00 0.00 30 1010.3
20260503233030 13 275 4.8 11.3 0.00 0.00 0.00 29 1010.0
20260503231532 14 322 4.8 12.9 0.00 0.00 0.00 28 1009.9
20260503230038 14 252 8.0 14.5 0.00 0.00 0.00 27 1009.7
20260503224534 15 348 9.7 22.5 0.00 0.00 0.00 27 1009.5
20260503223030 15 286 4.8 14.5 0.00 0.00 0.00 25 1009.5
20260503221533 15 277 12.9 20.9 0.00 0.00 0.00 26 1009.6
20260503220030 15 287 8.0 24.1 0.00 0.00 0.00 25 1009.6
20260503214538 15 335 11.3 25.7 0.00 0.00 0.00 25 1009.8
20260503213029 15 265 6.4 24.1 0.00 0.00 0.00 25 1009.6
20260503211530 15 313 8.0 29.0 0.00 0.00 0.00 25 1009.4
20260503210033 15 338 8.0 20.9 0.00 0.00 0.00 26 1009.7
20260503204530 15 294 8.0 20.9 0.00 0.00 0.00 26 1010.2
20260503203035 15 275 6.4 35.4 0.00 0.00 0.00 27 1009.4
20260503201530 14 323 9.7 20.9 0.00 0.00 0.00 28 1009.6
20260503200031 13 13 8.0 27.4 0.00 0.00 0.00 28 1009.5
20260503194538 13 322 8.0 27.4 0.00 0.00 0.00 31 1009.6
20260503193044 12 216 11.3 35.4 0.00 0.00 0.00 30 1009.9
20260503191601 13 300 3.2 22.5 0.00 0.00 0.00 31 1009.8
20260503190036 12 37 6.4 32.2 0.00 0.00 0.00 34 1010.1
20260503184536 13 334 8.0 20.9 0.00 0.00 0.00 32 1010.5
20260503183035 12 336 12.9 32.2 0.00 0.00 0.00 34 1010.5
20260503181546 12 323 8.0 20.9 0.00 0.00 0.00 34 1010.5
20260503180038 11 34 8.0 24.1 0.00 0.00 0.00 35 1010.4
20260503174543 11 265 9.7 25.7 0.00 0.00 0.00 35 1010.4
20260503173032 11 293 11.3 30.6 0.00 0.00 0.00 36 1010.3